SCP
0 0 0 0 0 0 0 0 0 0 0 0 0 0 0 0 0 0 0 0 0 0
0 0 0 0 0 0 0 0 0 0 0 0 0 0 0 0 0 0 0 0 0 0
0 0 0 0 0 0 0 0 0 0 0 0 0 0 0 0 0 0 0 0 0 0
0 0 0 0 0 0 0 0 0 0 0 0 0 0 0 0 0 0 0 0 0 0
0 0 0 0 0 0 0 0 0 0 0 0 0 0 0 0 0 0 0 0 0 0
0 0 0 0 0 0 0 0 0 0 0 0 0 0 0 0 0 0 0 0 0 0
0 0 0 0 0 0 0 0 0 0 0 0 0 0 0 0 0 0 0 0 0 0
0 0 0 0 0 0 0 0 0 0 0 0 0 0 0 0 0 0 0 0 0 0
0 0 0 0 0 0 0 0 0 0 0 0 0 0 0 0 0 0 0 0 0 0
0 0 0 0 0 0 0 0 0 0 0 0 0 0 0 0 0 0 0 0 0 0
0 0 0 0 0 0 0 0 0 0 0 0 0 0 0 0 0 0 0 0 0 0
0 0 0 0 0 0 0 0 0 0 0 0 0 0 0 0 0 0 0 0 0 0
0 0 0 0 0 -0 0 0 0 0 0 0 0 0 0 0 0 0 0 0 0 0
0 0 0 0 0 -0 -0 0 0 0 0 0 0 0 0 0 0 0 0 0 0 0
Wind_Speed_500mb
35 41 44 49 51 49 39 26 22 14 13 15 21 36 45 31 33 42 49 65 52 61
40 39 42 44 50 49 43 31 20 16 18 19 22 39 45 44 42 27 38 54 58 53
45 40 39 41 49 51 46 32 23 19 17 16 30 21 34 43 44 41 37 40 47 52
42 41 39 40 45 50 46 35 23 18 20 18 18 27 37 42 43 38 46 41 45 49
35 40 38 43 43 49 41 37 26 18 15 20 21 24 28 37 46 53 43 43 43 43
36 38 39 43 42 45 33 33 29 21 17 21 23 23 22 29 35 55 60 47 45 45
33 38 38 39 39 37 27 31 31 23 20 22 22 26 25 26 30 49 56 55 50 47
29 33 39 40 35 32 20 29 29 22 18 20 25 26 27 28 29 24 39 55 51 51
25 31 37 39 34 36 21 26 38 30 25 27 32 21 26 27 26 26 29 40 52 56
30 33 33 36 38 35 32 21 23 25 29 31 35 34 21 20 21 20 23 22 28 35
38 31 33 31 36 32 32 37 34 35 32 36 43 32 20 11 11 10 12 21 29 32
34 31 39 30 34 33 36 40 38 44 40 40 49 45 37 23 17 9 8 3 13 28
32 26 27 32 29 33 31 32 30 36 34 35 44 43 47 44 36 24 17 13 12 10
29 25 23 25 25 27 31 28 29 25 26 32 37 38 40 45 49 46 34 28 24 21
Wind_Direction_500mb
350 351 353 352 351 344 337 320 297 287 266 236 208 231 223 237 249 243 249 243 234 234
343 356 349 348 348 344 338 329 305 285 265 250 241 221 232 232 239 248 233 235 236 242
351 354 350 345 346 345 343 339 316 297 270 266 252 239 223 231 236 241 244 237 246 244
352 347 351 344 345 345 346 345 331 310 303 272 264 238 233 228 234 242 239 242 240 254
348 351 346 347 343 346 349 354 347 328 308 292 262 248 233 236 230 237 237 242 247 242
351 354 350 348 346 347 351 357 1 355 327 285 279 267 251 237 233 232 240 240 243 246
352 356 354 349 352 352 355 4 1 355 323 310 298 274 266 245 236 235 236 235 241 249
353 359 355 358 1 0 9 21 6 5 347 335 319 304 273 261 255 245 231 232 242 245
351 5 358 358 9 12 34 45 37 36 32 2 0 324 318 300 273 255 243 240 237 234
2 8 2 1 20 23 33 38 41 35 38 8 9 4 340 308 303 272 256 245 241 226
2 7 6 13 17 23 30 38 45 43 33 24 22 1 344 310 314 307 271 248 245 245
0 12 7 22 21 20 34 39 42 31 28 29 25 20 27 37 58 75 66 294 255 251
360 9 11 15 31 19 13 32 31 38 21 19 22 23 28 35 47 51 43 32 5 328
358 18 16 27 47 33 23 10 8 7 1 10 21 24 28 32 39 37 30 24 20 7
Wind_Speed_850mb
35 41 44 49 51 49 39 26 22 14 13 15 21 36 45 31 33 42 49 65 52 61
40 39 42 44 50 49 43 31 20 16 18 19 22 39 45 44 42 27 38 54 58 53
45 40 39 41 49 51 46 32 23 19 17 16 30 21 34 43 44 41 37 40 47 52
42 41 39 40 45 50 46 35 23 18 20 18 18 27 37 42 43 38 46 41 45 49
35 40 38 43 43 49 41 37 26 18 15 20 21 24 28 37 46 53 43 43 43 43
36 38 39 43 42 45 33 33 29 21 17 21 23 23 22 29 35 55 60 47 45 45
33 38 38 39 39 37 27 31 31 23 20 22 22 26 25 26 30 49 56 55 50 47
29 33 39 40 35 32 20 29 29 22 18 20 25 26 27 28 29 24 39 55 51 51
25 31 37 39 34 36 21 26 38 30 25 27 32 21 26 27 26 26 29 40 52 56
30 33 33 36 38 35 32 21 23 25 29 31 35 34 21 20 21 20 23 22 28 35
38 31 33 31 36 32 32 37 34 35 32 36 43 32 20 11 11 10 12 21 29 32
34 31 39 30 34 33 36 40 38 44 40 40 49 45 37 23 17 9 8 3 13 28
32 26 27 32 29 33 31 32 30 36 34 35 44 43 47 44 36 24 17 13 12 10
29 25 23 25 25 27 31 28 29 25 26 32 37 38 40 45 49 46 34 28 24 21
Wind_Direction_850mb
350 351 353 352 351 344 337 320 297 287 266 236 208 231 223 237 249 243 249 243 234 234
343 356 349 348 348 344 338 329 305 285 265 250 241 221 232 232 239 248 233 235 236 242
351 354 350 345 346 345 343 339 316 297 270 266 252 239 223 231 236 241 244 237 246 244
352 347 351 344 345 345 346 345 331 310 303 272 264 238 233 228 234 242 239 242 240 254
348 351 346 347 343 346 349 354 347 328 308 292 262 248 233 236 230 237 237 242 247 242
351 354 350 348 346 347 351 357 1 355 327 285 279 267 251 237 233 232 240 240 243 246
352 356 354 349 352 352 355 4 1 355 323 310 298 274 266 245 236 235 236 235 241 249
353 359 355 358 1 0 9 21 6 5 347 335 319 304 273 261 255 245 231 232 242 245
351 5 358 358 9 12 34 45 37 36 32 2 0 324 318 300 273 255 243 240 237 234
2 8 2 1 20 23 33 38 41 35 38 8 9 4 340 308 303 272 256 245 241 226
2 7 6 13 17 23 30 38 45 43 33 24 22 1 344 310 314 307 271 248 245 245
0 12 7 22 21 20 34 39 42 31 28 29 25 20 27 37 58 75 66 294 255 251
360 9 11 15 31 19 13 32 31 38 21 19 22 23 28 35 47 51 43 32 5 328
358 18 16 27 47 33 23 10 8 7 1 10 21 24 28 32 39 37 30 24 20 7